VIR2281 KJFK-EKCH

Flight info

Callsign VIR2281
Flight time N/A
Altitude 37000
Route MERIT DCT HFD DCT ENE DCT TOPPS DCT JANJO/M079F390 NATT KESIX/N0452F390 DCT IBROD DCT ELSAN DCT VAXIT N581 EVAKI T55 TESPI
Aircraft A343/H-SDE2E3FGHIJ4J5M1RWXY/LB1D1

Departure

Time 2026-05-06 23:34
Airport John F. Kennedy International Airport (KJFK)

Arrival

Time N/A
Airport Copenhagen Kastrup Airport (EKCH)
Time Latitude Longitude Altitude Speed Heading
2026-05-06 22:37 40.64042 -73.78283 26 ft 0 kts 61°
2026-05-06 23:13 40.64032 -73.78303 30 ft 4 kts 47°
2026-05-06 23:13 40.64015 -73.78329 30 ft 4 kts 60°
2026-05-06 23:13 40.64007 -73.78361 30 ft 4 kts 98°
2026-05-06 23:14 40.64017 -73.78387 30 ft 2 kts 149°
2026-05-06 23:14 40.64019 -73.78389 30 ft 0 kts 151°
2026-05-06 23:18 40.64018 -73.78388 30 ft 0 kts 151°
2026-05-06 23:18 40.64015 -73.78386 30 ft 1 kts 151°
2026-05-06 23:18 40.63998 -73.78373 29 ft 4 kts 151°
2026-05-06 23:18 40.63964 -73.78349 29 ft 7 kts 151°
2026-05-06 23:19 40.63915 -73.78313 29 ft 9 kts 153°
2026-05-06 23:19 40.63848 -73.78291 28 ft 11 kts 173°
2026-05-06 23:19 40.63768 -73.78278 27 ft 12 kts 173°
2026-05-06 23:19 40.63686 -73.78265 28 ft 12 kts 173°
2026-05-06 23:20 40.63613 -73.78254 27 ft 6 kts 177°
2026-05-06 23:20 40.63594 -73.78255 30 ft 0 kts 185°
2026-05-06 23:21 40.63590 -73.78256 27 ft 2 kts 186°
2026-05-06 23:21 40.63569 -73.78264 27 ft 4 kts 197°
2026-05-06 23:21 40.63543 -73.78279 30 ft 4 kts 209°
2026-05-06 23:21 40.63511 -73.78304 30 ft 7 kts 211°
2026-05-06 23:22 40.63471 -73.78326 28 ft 6 kts 186°
2026-05-06 23:22 40.63442 -73.78307 28 ft 4 kts 140°
2026-05-06 23:22 40.63418 -73.78260 31 ft 10 kts 121°
2026-05-06 23:22 40.63367 -73.78148 29 ft 16 kts 121°
2026-05-06 23:23 40.63331 -73.78013 27 ft 16 kts 96°
2026-05-06 23:23 40.63350 -73.77873 29 ft 16 kts 65°
2026-05-06 23:23 40.63423 -73.77774 30 ft 15 kts 31°
2026-05-06 23:23 40.63517 -73.77700 25 ft 16 kts 30°
2026-05-06 23:24 40.63616 -73.77624 27 ft 17 kts 30°
2026-05-06 23:24 40.63716 -73.77546 25 ft 17 kts 30°
2026-05-06 23:24 40.63819 -73.77465 26 ft 17 kts 32°
2026-05-06 23:24 40.63913 -73.77393 27 ft 15 kts 27°
2026-05-06 23:25 40.64001 -73.77323 29 ft 14 kts 32°
2026-05-06 23:25 40.64086 -73.77255 29 ft 14 kts 31°
2026-05-06 23:25 40.64171 -73.77188 31 ft 14 kts 31°
2026-05-06 23:25 40.64259 -73.77120 30 ft 15 kts 30°
2026-05-06 23:26 40.64349 -73.77051 29 ft 15 kts 30°
2026-05-06 23:26 40.64445 -73.76990 28 ft 15 kts 19°
2026-05-06 23:26 40.64542 -73.76965 26 ft 14 kts 29°
2026-05-06 23:26 40.64624 -73.76901 26 ft 14 kts 28°
2026-05-06 23:27 40.64678 -73.76862 26 ft 0 kts 31°
2026-05-06 23:28 40.64679 -73.76862 26 ft 0 kts 31°
2026-05-06 23:29 40.64681 -73.76859 28 ft 1 kts 31°
2026-05-06 23:29 40.64702 -73.76843 27 ft 6 kts 31°
2026-05-06 23:29 40.64756 -73.76798 25 ft 12 kts 32°
2026-05-06 23:29 40.64831 -73.76736 31 ft 13 kts 31°
2026-05-06 23:30 40.64908 -73.76675 27 ft 13 kts 31°
2026-05-06 23:30 40.64984 -73.76616 30 ft 12 kts 31°
2026-05-06 23:30 40.65036 -73.76575 30 ft 8 kts 30°
2026-05-06 23:30 40.65059 -73.76557 31 ft 0 kts 30°
2026-05-06 23:31 40.65062 -73.76554 31 ft 3 kts 30°
2026-05-06 23:31 40.65097 -73.76512 28 ft 9 kts 60°
2026-05-06 23:31 40.65087 -73.76442 30 ft 7 kts 120°
2026-05-06 23:32 40.65061 -73.76390 26 ft 7 kts 128°
2026-05-06 23:32 40.65021 -73.76357 30 ft 6 kts 173°
2026-05-06 23:32 40.64991 -73.76379 26 ft 5 kts 211°
2026-05-06 23:32 40.64987 -73.76382 26 ft 0 kts 211°
2026-05-06 23:33 40.64896 -73.76455 31 ft 42 kts 211°
2026-05-06 23:33 40.64487 -73.76777 27 ft 93 kts 211°
2026-05-06 23:33 40.63805 -73.77310 28 ft 134 kts 210°
2026-05-06 23:33 40.62905 -73.78019 42 ft 167 kts 211°
2026-05-06 23:34 40.61943 -73.78801 634 ft 159 kts 211°
2026-05-06 23:34 40.61019 -73.79562 1260 ft 154 kts 216°
2026-05-06 23:34 40.60135 -73.80318 1868 ft 150 kts 216°
2026-05-06 23:34 40.59252 -73.81005 2402 ft 149 kts 216°
2026-05-06 23:35 40.58347 -73.81710 2861 ft 154 kts 217°
2026-05-06 23:35 40.57411 -73.82448 3318 ft 164 kts 217°
2026-05-06 23:35 40.56379 -73.83273 3569 ft 184 kts 217°
2026-05-06 23:35 40.55228 -73.84193 3879 ft 204 kts 217°
2026-05-06 23:36 40.53935 -73.85228 4178 ft 229 kts 216°
2026-05-06 23:36 40.52531 -73.86345 4716 ft 243 kts 216°
2026-05-06 23:36 40.51058 -73.87511 4967 ft 249 kts 216°
2026-05-06 23:36 40.49575 -73.88683 5005 ft 249 kts 216°
2026-05-06 23:37 40.48103 -73.89840 5004 ft 250 kts 215°
2026-05-06 23:37 40.46428 -73.90573 5041 ft 263 kts 189°
2026-05-06 23:37 40.44595 -73.90125 5474 ft 279 kts 160°
2026-05-06 23:37 40.43034 -73.88523 6217 ft 296 kts 134°
2026-05-06 23:38 40.42082 -73.86084 6919 ft 309 kts 107°
2026-05-06 23:38 40.41953 -73.83256 7650 ft 316 kts 81°
2026-05-06 23:38 40.42686 -73.80530 8291 ft 321 kts 56°
2026-05-06 23:38 40.43972 -73.78118 8956 ft 324 kts 48°
2026-05-06 23:39 40.45381 -73.75779 9615 ft 330 kts 47°
2026-05-06 23:39 40.46827 -73.73409 10208 ft 336 kts 47°
2026-05-06 23:39 40.48334 -73.70953 10526 ft 353 kts 47°
2026-05-06 23:39 40.49892 -73.68428 10800 ft 369 kts 47°
2026-05-06 23:40 40.51553 -73.65756 11060 ft 385 kts 47°
2026-05-06 23:40 40.53388 -73.63155 11450 ft 390 kts 36°
2026-05-06 23:40 40.55629 -73.61144 11999 ft 390 kts 24°
2026-05-06 23:40 40.58034 -73.59478 12529 ft 393 kts 19°
2026-05-06 23:41 40.60540 -73.57991 13100 ft 396 kts 17°
2026-05-06 23:41 40.63099 -73.56586 13661 ft 401 kts 15°
2026-05-06 23:41 40.65694 -73.55192 14204 ft 405 kts 15°
2026-05-06 23:41 40.68305 -73.53777 14811 ft 407 kts 15°
2026-05-06 23:42 40.70886 -73.52355 15424 ft 408 kts 16°
2026-05-06 23:42 40.73509 -73.50888 16024 ft 411 kts 16°
2026-05-06 23:42 40.76196 -73.49371 16614 ft 414 kts 16°
2026-05-06 23:42 40.78837 -73.47872 16930 ft 417 kts 16°
2026-05-06 23:43 40.81499 -73.46355 16992 ft 418 kts 17°
2026-05-06 23:43 40.84136 -73.44849 16981 ft 419 kts 17°
2026-05-06 23:43 40.86823 -73.43312 16979 ft 420 kts 17°
2026-05-06 23:43 40.89507 -73.41777 16980 ft 420 kts 17°
2026-05-06 23:44 40.92192 -73.40241 16978 ft 420 kts 17°
2026-05-06 23:44 40.94877 -73.38704 16977 ft 420 kts 17°
2026-05-06 23:44 40.97556 -73.37170 16980 ft 420 kts 17°
2026-05-06 23:44 41.00240 -73.35633 16990 ft 421 kts 17°
2026-05-06 23:45 41.02931 -73.34092 16985 ft 421 kts 17°
2026-05-06 23:45 41.05622 -73.32549 16985 ft 422 kts 17°
2026-05-06 23:45 41.08314 -73.31003 16982 ft 422 kts 17°
2026-05-06 23:45 41.10973 -73.29475 16977 ft 422 kts 18°
2026-05-06 23:46 41.13658 -73.27930 16980 ft 421 kts 18°
2026-05-06 23:46 41.16348 -73.26381 16987 ft 421 kts 18°
2026-05-06 23:46 41.19037 -73.24832 16999 ft 421 kts 18°
2026-05-06 23:46 41.21724 -73.23283 16986 ft 422 kts 18°
2026-05-06 23:47 41.24426 -73.21724 16988 ft 423 kts 18°
2026-05-06 23:47 41.27122 -73.20166 16988 ft 423 kts 18°
2026-05-06 23:47 41.29823 -73.18604 16987 ft 423 kts 18°
2026-05-06 23:47 41.32518 -73.17044 16986 ft 423 kts 18°
2026-05-06 23:48 41.35192 -73.15390 16984 ft 427 kts 24°
2026-05-06 23:48 41.37654 -73.13138 17000 ft 433 kts 38°
2026-05-06 23:48 41.39661 -73.10192 16990 ft 437 kts 51°
2026-05-06 23:48 41.41408 -73.06870 16988 ft 439 kts 56°
2026-05-06 23:49 41.43006 -73.03400 16988 ft 440 kts 58°
2026-05-06 23:49 41.44532 -72.99865 16988 ft 440 kts 59°
2026-05-06 23:49 41.46034 -72.96318 16988 ft 440 kts 59°
2026-05-06 23:49 41.47540 -72.92769 16976 ft 440 kts 59°
2026-05-06 23:50 41.49060 -72.89225 16990 ft 441 kts 59°
2026-05-06 23:50 41.52134 -72.82158 16989 ft 441 kts 59°
2026-05-06 23:50 41.53685 -72.78619 16988 ft 441 kts 59°
2026-05-06 23:51 41.55234 -72.75087 16989 ft 441 kts 59°
2026-05-06 23:51 41.56760 -72.71607 16986 ft 441 kts 59°
2026-05-06 23:51 41.58308 -72.68072 16983 ft 441 kts 59°
2026-05-06 23:51 41.59855 -72.64530 16963 ft 441 kts 59°
2026-05-06 23:52 41.61395 -72.61001 16961 ft 441 kts 59°
2026-05-06 23:52 41.63018 -72.57520 16963 ft 441 kts 53°
2026-05-06 23:52 41.64960 -72.54354 16961 ft 439 kts 43°
2026-05-06 23:52 41.67182 -72.51584 16979 ft 437 kts 38°
2026-05-06 23:53 41.69478 -72.49008 16960 ft 436 kts 36°
2026-05-06 23:53 41.71858 -72.46488 17108 ft 438 kts 34°
2026-05-06 23:53 41.74282 -72.43986 17602 ft 441 kts 34°
2026-05-06 23:53 41.76722 -72.41479 18167 ft 444 kts 34°
2026-05-06 23:54 41.79178 -72.38945 18650 ft 448 kts 34°
2026-05-06 23:54 41.81647 -72.36379 19140 ft 451 kts 33°
2026-05-06 23:54 41.84131 -72.33781 19650 ft 453 kts 33°
2026-05-06 23:54 41.86618 -72.31169 20174 ft 456 kts 33°
2026-05-06 23:55 41.89125 -72.28527 20635 ft 459 kts 33°
2026-05-06 23:55 41.91639 -72.25872 21159 ft 461 kts 33°
2026-05-06 23:55 41.94168 -72.23197 21607 ft 464 kts 32°
2026-05-06 23:55 41.96708 -72.20511 22047 ft 467 kts 32°
2026-05-06 23:56 41.99265 -72.17803 22544 ft 469 kts 32°
2026-05-06 23:56 42.01844 -72.15071 22968 ft 472 kts 31°
2026-05-06 23:56 42.04389 -72.12374 23468 ft 473 kts 32°
2026-05-06 23:56 42.06980 -72.09624 23838 ft 476 kts 32°
2026-05-06 23:57 42.09593 -72.06848 24140 ft 480 kts 31°
2026-05-06 23:57 42.12220 -72.04053 24462 ft 483 kts 31°
2026-05-06 23:57 42.14862 -72.01239 24780 ft 486 kts 31°
2026-05-06 23:57 42.17526 -71.98399 25098 ft 489 kts 31°
2026-05-06 23:58 42.20202 -71.95543 25418 ft 492 kts 32°
2026-05-06 23:58 42.22893 -71.92666 25748 ft 495 kts 32°
2026-05-06 23:58 42.25601 -71.89768 26020 ft 498 kts 32°
2026-05-06 23:58 42.28319 -71.86856 26358 ft 500 kts 32°
2026-05-06 23:59 42.31010 -71.83970 26640 ft 503 kts 32°
2026-05-06 23:59 42.33759 -71.81018 26915 ft 506 kts 32°
2026-05-06 23:59 42.36516 -71.78056 27242 ft 509 kts 32°
2026-05-06 23:59 42.39298 -71.75063 27510 ft 512 kts 32°
2026-05-07 00:00 42.42089 -71.72055 27774 ft 515 kts 32°
2026-05-07 00:00 42.44889 -71.69037 28031 ft 517 kts 32°
2026-05-07 00:00 42.47712 -71.65988 28306 ft 520 kts 32°
2026-05-07 00:00 42.50546 -71.62924 28557 ft 522 kts 32°
2026-05-07 00:01 42.53391 -71.59844 28858 ft 525 kts 31°
2026-05-07 00:01 42.56254 -71.56742 29106 ft 527 kts 31°
2026-05-07 00:01 42.59086 -71.53668 29348 ft 529 kts 31°
2026-05-07 00:01 42.61959 -71.50546 29591 ft 531 kts 31°
2026-05-07 00:02 42.64855 -71.47396 29825 ft 534 kts 31°
2026-05-07 00:02 42.67759 -71.44233 30026 ft 536 kts 31°
2026-05-07 00:02 42.70670 -71.41058 30287 ft 538 kts 31°
2026-05-07 00:02 42.73591 -71.37868 30510 ft 539 kts 31°
2026-05-07 00:03 42.76520 -71.34665 30746 ft 541 kts 31°
2026-05-07 00:03 42.79456 -71.31451 30949 ft 542 kts 31°
2026-05-07 00:03 42.82398 -71.28226 31163 ft 544 kts 31°
2026-05-07 00:03 42.85343 -71.24994 31420 ft 544 kts 31°
2026-05-07 00:04 42.88277 -71.21767 31810 ft 542 kts 32°
2026-05-07 00:04 42.91171 -71.18579 32122 ft 540 kts 32°
2026-05-07 00:04 42.94099 -71.15352 32381 ft 540 kts 32°
2026-05-07 00:04 42.97017 -71.12134 32648 ft 540 kts 32°
2026-05-07 00:05 42.99936 -71.08912 32920 ft 539 kts 32°
2026-05-07 00:05 43.02857 -71.05683 33213 ft 539 kts 32°
2026-05-07 00:05 43.05761 -71.02469 33504 ft 538 kts 32°
2026-05-07 00:05 43.08668 -70.99247 33750 ft 537 kts 32°
2026-05-07 00:06 43.11571 -70.96026 33951 ft 537 kts 32°
2026-05-07 00:06 43.14435 -70.92843 34154 ft 537 kts 32°
2026-05-07 00:06 43.17329 -70.89623 34386 ft 536 kts 32°
2026-05-07 00:06 43.20217 -70.86405 34555 ft 535 kts 32°
2026-05-07 00:07 43.23104 -70.83186 34741 ft 535 kts 32°
2026-05-07 00:07 43.25993 -70.79960 34924 ft 535 kts 32°
2026-05-07 00:07 43.28871 -70.76743 35124 ft 534 kts 32°
2026-05-07 00:07 43.31721 -70.73551 35332 ft 534 kts 32°
2026-05-07 00:08 43.34596 -70.70329 35543 ft 533 kts 33°
2026-05-07 00:08 43.37465 -70.67108 35758 ft 532 kts 33°
2026-05-07 00:08 43.40332 -70.63886 35935 ft 532 kts 33°
2026-05-07 00:08 43.43062 -70.60532 36086 ft 537 kts 39°
2026-05-07 00:09 43.45705 -70.56899 36247 ft 537 kts 40°
2026-05-07 00:09 43.48313 -70.53223 36410 ft 538 kts 40°
2026-05-07 00:09 43.50913 -70.49506 36600 ft 538 kts 41°
2026-05-07 00:09 43.53497 -70.45785 36762 ft 538 kts 41°
2026-05-07 00:10 43.58658 -70.38333 36776 ft 535 kts 41°
2026-05-07 00:10 43.63784 -70.30932 36728 ft 533 kts 41°
2026-05-07 00:11 43.68871 -70.23585 36787 ft 532 kts 41°
2026-05-07 00:11 43.73968 -70.16204 36771 ft 530 kts 41°